Home   Weather   Hialeah   Past weeks

Flag for USA Past Weather in Hialeah, Florida, USA — Yesterday and Last 2 Weeks

Now
77 °F

Passing clouds.


Feels Like: 79 °F
Forecast: 79 / 85 °F
Wind: 16 mph from Southeast

Location: Opa Locka Airport

Current Time: May 1, 2017 at 2:17:59 am

Latest Report: May 1, 2017 at 1:03 am


Visibility: 10 mi

Pressure: 30.09 "Hg

Humidity: 79%

Dew Point: 70 °F

Location of HialeahLocation

Past Weather in Hialeah — Graph

°F

Hialeah Temperature Yesterday

Maximum temperature yesterday: 83 °F (at 2:01 pm)
Minimum temperature yesterday: 76 °F (at 6:53 am)
Average temperature yesterday: 79 °F

High & Low Weather Summary for the Past Weeks

 TemperatureHumidityPressure
High86 °F (Apr 27, 1:07 pm)97% (Apr 27, 5:53 am)30.20 "Hg (Apr 27, 5:53 am)
Low64 °F (Apr 25, 5:53 am)41% (Apr 25, 2:53 pm)29.72 "Hg (Apr 24, 4:53 pm)
Average78 °F67%30.03 "Hg
* Reported Apr 16 2:06 am — May 1 1:03 am, Hialeah, Weather by CustomWeather, © 2017

Note: Actual official high and low records may vary slightly from our data, if they occured in-between our weather recording intervals... More about our weather records

Advertising

Hialeah Weather History for the Previous 24 Hours

Scroll right to see more
 ConditionsComfort  
Time TempWeatherWind HumidityBarometerVisibility
1:03 am
Mon, May 1
77 °FPassing clouds.16 mph79%30.09 "Hg10 mi
11:53 pm
Sun, Apr 30
78 °FOvercast.15 mph79%30.11 "Hg10 mi
11:34 pm78 °FMostly cloudy.16 mph79%30.11 "Hg10 mi
10:53 pm78 °FPartly cloudy.17 mph79%30.11 "Hg10 mi
10:31 pm78 °FOvercast.16 mph79%30.10 "Hg10 mi
9:53 pm78 °FPartly cloudy.14 mph76%30.10 "Hg10 mi
8:53 pm78 °FPassing clouds.16 mph76%30.08 "Hg10 mi
7:53 pm78 °FPassing clouds.17 mph76%30.07 "Hg10 mi
6:53 pm79 °FScattered clouds.16 mph74%30.07 "Hg10 mi
5:53 pm81 °FBroken clouds.16 mph67%30.07 "Hg10 mi
4:53 pm82 °FScattered clouds.17 mph67%30.07 "Hg10 mi
3:53 pm82 °FBroken clouds.18 mph67%30.09 "Hg10 mi
2:53 pm83 °FPartly sunny.17 mph65%30.10 "Hg10 mi
2:33 pm82 °FPartly sunny.20 mph65%30.10 "Hg10 mi
2:01 pm83 °FPartly sunny.21 mph63%30.10 "Hg10 mi
12:53 pm82 °FBroken clouds.18 mph65%30.11 "Hg10 mi
11:53 am82 °FBroken clouds.17 mph65%30.12 "Hg10 mi
10:53 am80 °FBroken clouds.23 mph69%30.13 "Hg10 mi
9:53 am81 °FBroken clouds.17 mph67%30.12 "Hg10 mi
8:53 am79 °FScattered clouds.17 mph72%30.13 "Hg10 mi
7:53 am78 °FPassing clouds.14 mph74%30.11 "Hg10 mi
7:36 am77 °FLight rain. Partly sunny.13 mph77%30.10 "Hg10 mi
6:53 am76 °FPassing clouds.12 mph77%30.09 "Hg10 mi
5:53 am77 °FPartly cloudy.14 mph74%30.09 "Hg10 mi
4:53 am77 °FPassing clouds.16 mph77%30.07 "Hg10 mi
3:53 am77 °FPartly cloudy.10 mph77%30.08 "Hg10 mi
2:53 am77 °FPassing clouds.17 mph77%30.09 "Hg10 mi
Weather by CustomWeather, © 2017

See weather overviewHow to use our weather pages